1998-067VV

Last updated on Mon Nov 27 2023 00:02:07 GMT+0000 (Coordinated Universal Time)

1 57317U 98067VV 23329.89343695 .02515497 10049-1 21407-2 0 9993 2 57317 51.6245 230.1844 0007256 184.2314 175.8642 16.15250807 22331

Satellite not in orbit